Regional Weather Roundup
Issued by NWS

Home | Current Version | Previous Version | Text Only | Print | Product List | Glossary Off
Versions: 1 2 3 4 5 6 7 8 9 10 11 12 13 14 15 16 17 18 19 20 21 22 23 24 25 26 27 28 29 30 31 32 33 34 35 36 37 38 39 40 41 42 43 44 45 46 47 48 49 50

000
ASUS43 KBIS 281610
RWRND

NORTH DAKOTA REGIONAL WEATHER ROUNDUP
NATIONAL WEATHER SERVICE BISMARCK ND
1000 AM CST SAT FEB 28 2015

NOTE: "FAIR" INDICATES FEW OR NO CLOUDS BELOW 12,000 FEET WITH NO
SIGNIFICANT WEATHER AND/OR OBSTRUCTIONS TO VISIBILITY.


NDZ001>003-009>011-017-281700-
NORTHWEST NORTH DAKOTA

CITY           SKY/WX    TMP DP  RH WIND       PRES   REMARKS
WILLISTON      CLOUDY     6  -1  73 W6        30.18R WCI  -4
MINOT          CLOUDY     6  -2  69 W15       30.10R WCI -12
MINOT AFB      CLOUDY     6   1  79 NW20      30.09R WCI -15
$$

NDZ018>021-031>035-040>046-281700-
SOUTHWEST NORTH DAKOTA

CITY           SKY/WX    TMP DP  RH WIND       PRES   REMARKS
BISMARCK       CLOUDY    17   8  67 W12       30.11R WCI   4
DICKINSON      MOSUNNY    9   1  70 NW21      30.08R WCI -11
GARRISON         N/A      9   2  73 NW22G28   30.09R WCI -11
HETTINGER ARPT MOSUNNY   13   6  74 NW20      30.09R WCI  -5
$$

NDZ004>008-012>016-024-026-027-054-281700-
NORTHEAST NORTH DAKOTA

CITY           SKY/WX    TMP DP  RH WIND       PRES   REMARKS
GRAND FORKS    CLOUDY     9   2  73 S18       30.20F WCI -10
GRND FRKS AFB  CLOUDY    12   2  64 SW12      30.18F WCI  -2
DEVILS LAKE    CLOUDY    10   1  67 S8        30.09F WCI  -1
$$

NDZ022-023-025-028>030-036>039-047>053-281700-
SOUTHEAST NORTH DAKOTA

CITY           SKY/WX    TMP DP  RH WIND       PRES   REMARKS
FARGO          MOSUNNY   14   4  64 S15       30.26F WCI  -1
JAMESTOWN      CLOUDY     9   1  70 S20       30.11F WCI -10
$$



USA.gov is the U.S. government's official web portal to all federal, state and local government web resources and services.